Year,Month,Day,Hour,Minute,Value (Times are PST for insolation in W/m^2)
2015,06,03,00,00,0.00
2015,06,03,00,01,0.00
2015,06,03,00,02,0.00
2015,06,03,00,03,0.00
2015,06,03,00,04,0.00
2015,06,03,00,05,0.00
2015,06,03,00,06,0.00
2015,06,03,00,07,0.00
2015,06,03,00,08,0.00
2015,06,03,00,09,0.00
2015,06,03,00,10,0.00
2015,06,03,00,11,0.00
2015,06,03,00,12,0.00
2015,06,03,00,13,0.00
2015,06,03,00,14,0.00
2015,06,03,00,15,0.00
2015,06,03,00,16,0.00
2015,06,03,00,17,0.00
2015,06,03,00,18,0.00
2015,06,03,00,19,0.00
2015,06,03,00,20,0.00
2015,06,03,00,21,0.00
2015,06,03,00,22,0.00
2015,06,03,00,23,0.00
2015,06,03,00,24,0.00
2015,06,03,00,25,0.00
2015,06,03,00,26,0.00
2015,06,03,00,27,0.00
2015,06,03,00,28,0.00
2015,06,03,00,29,0.00
2015,06,03,00,30,0.00
2015,06,03,00,31,0.00
2015,06,03,00,32,0.00
2015,06,03,00,33,0.00
2015,06,03,00,34,0.00
2015,06,03,00,35,0.00
2015,06,03,00,36,0.00
2015,06,03,00,37,0.00
2015,06,03,00,38,0.00
2015,06,03,00,39,0.00
2015,06,03,00,40,0.00
2015,06,03,00,41,0.00
2015,06,03,00,42,0.00
2015,06,03,00,43,0.00
2015,06,03,00,44,0.00
2015,06,03,00,45,0.00
2015,06,03,00,46,0.00
2015,06,03,00,47,0.00
2015,06,03,00,48,0.00
2015,06,03,00,49,0.00
2015,06,03,00,50,0.00
2015,06,03,00,51,0.00
2015,06,03,00,52,0.00
2015,06,03,00,53,0.00
2015,06,03,00,54,0.00
2015,06,03,00,55,0.00
2015,06,03,00,56,0.00
2015,06,03,00,57,0.00
2015,06,03,00,58,0.00
2015,06,03,00,59,0.00
2015,06,03,01,00,0.00
2015,06,03,01,01,0.00
2015,06,03,01,02,0.00
2015,06,03,01,03,0.00
2015,06,03,01,04,0.00
2015,06,03,01,05,0.00
2015,06,03,01,06,0.00
2015,06,03,01,07,0.00
2015,06,03,01,08,0.00
2015,06,03,01,09,0.00
2015,06,03,01,10,0.00
2015,06,03,01,11,0.00
2015,06,03,01,12,0.00
2015,06,03,01,13,0.00
2015,06,03,01,14,0.00
2015,06,03,01,15,0.00
2015,06,03,01,16,0.00
2015,06,03,01,17,0.00
2015,06,03,01,18,0.00
2015,06,03,01,19,0.00
2015,06,03,01,20,0.00
2015,06,03,01,21,0.00
2015,06,03,01,22,0.00
2015,06,03,01,23,0.00
2015,06,03,01,24,0.00
2015,06,03,01,25,0.00
2015,06,03,01,26,0.00
2015,06,03,01,27,0.00
2015,06,03,01,28,0.00
2015,06,03,01,29,0.00
2015,06,03,01,30,0.00
2015,06,03,01,31,0.00
2015,06,03,01,32,0.00
2015,06,03,01,33,0.00
2015,06,03,01,34,0.00
2015,06,03,01,35,0.00
2015,06,03,01,36,0.00
2015,06,03,01,37,0.00
2015,06,03,01,38,0.00
2015,06,03,01,39,0.00
2015,06,03,01,40,0.00
2015,06,03,01,41,0.00
2015,06,03,01,42,0.00
2015,06,03,01,43,0.00
2015,06,03,01,44,0.00
2015,06,03,01,45,0.00
2015,06,03,01,46,0.00
2015,06,03,01,47,0.00
2015,06,03,01,48,0.00
2015,06,03,01,49,0.00
2015,06,03,01,50,0.00
2015,06,03,01,51,0.00
2015,06,03,01,52,0.00
2015,06,03,01,53,0.00
2015,06,03,01,54,0.00
2015,06,03,01,55,0.00
2015,06,03,01,56,0.00
2015,06,03,01,57,0.00
2015,06,03,01,58,0.00
2015,06,03,01,59,0.00
2015,06,03,02,00,0.00
2015,06,03,02,01,0.00
2015,06,03,02,02,0.00
2015,06,03,02,03,0.00
2015,06,03,02,04,0.00
2015,06,03,02,05,0.00
2015,06,03,02,06,0.00
2015,06,03,02,07,0.00
2015,06,03,02,08,0.00
2015,06,03,02,09,0.00
2015,06,03,02,10,0.00
2015,06,03,02,11,0.00
2015,06,03,02,12,0.00
2015,06,03,02,13,0.00
2015,06,03,02,14,0.00
2015,06,03,02,15,0.00
2015,06,03,02,16,0.00
2015,06,03,02,17,0.00
2015,06,03,02,18,0.00
2015,06,03,02,19,0.00
2015,06,03,02,20,0.00
2015,06,03,02,21,0.00
2015,06,03,02,22,0.00
2015,06,03,02,23,0.00
2015,06,03,02,24,0.00
2015,06,03,02,25,0.00
2015,06,03,02,26,0.00
2015,06,03,02,27,0.00
2015,06,03,02,28,0.00
2015,06,03,02,29,0.00
2015,06,03,02,30,0.00
2015,06,03,02,31,0.00
2015,06,03,02,32,0.00
2015,06,03,02,33,0.00
2015,06,03,02,34,0.00
2015,06,03,02,35,0.00
2015,06,03,02,36,0.00
2015,06,03,02,37,0.00
2015,06,03,02,38,0.00
2015,06,03,02,39,0.00
2015,06,03,02,40,0.00
2015,06,03,02,41,0.00
2015,06,03,02,42,0.00
2015,06,03,02,43,0.00
2015,06,03,02,44,0.00
2015,06,03,02,45,0.00
2015,06,03,02,46,0.00
2015,06,03,02,47,0.00
2015,06,03,02,48,0.00
2015,06,03,02,49,0.00
2015,06,03,02,50,0.00
2015,06,03,02,51,0.00
2015,06,03,02,52,0.00
2015,06,03,02,53,0.00
2015,06,03,02,54,0.00
2015,06,03,02,55,0.00
2015,06,03,02,56,0.00
2015,06,03,02,57,0.00
2015,06,03,02,58,0.00
2015,06,03,02,59,0.00
2015,06,03,03,00,0.00
2015,06,03,03,01,0.00
2015,06,03,03,02,0.00
2015,06,03,03,06,0.00
2015,06,03,03,07,0.00
2015,06,03,03,08,0.00
2015,06,03,03,09,0.00
2015,06,03,03,10,0.00
2015,06,03,03,11,0.00
2015,06,03,03,12,0.00
2015,06,03,03,13,0.00
2015,06,03,03,14,0.00
2015,06,03,03,15,0.00
2015,06,03,03,16,0.00
2015,06,03,03,17,0.00
2015,06,03,03,18,0.00
2015,06,03,03,19,0.00
2015,06,03,03,20,0.00
2015,06,03,03,21,0.00
2015,06,03,03,22,0.00
2015,06,03,03,23,0.00
2015,06,03,03,24,0.00
2015,06,03,03,25,0.00
2015,06,03,03,26,0.00
2015,06,03,03,27,0.00
2015,06,03,03,28,0.00
2015,06,03,03,29,0.00
2015,06,03,03,30,0.00
2015,06,03,03,31,0.00
2015,06,03,03,32,0.00
2015,06,03,03,33,0.00
2015,06,03,03,34,0.00
2015,06,03,03,35,0.00
2015,06,03,03,36,0.00
2015,06,03,03,37,0.00
2015,06,03,03,38,0.00
2015,06,03,03,39,0.00
2015,06,03,03,40,0.00
2015,06,03,03,41,0.00
2015,06,03,03,42,0.00
2015,06,03,03,43,0.00
2015,06,03,03,44,0.00
2015,06,03,03,45,0.00
2015,06,03,03,46,0.00
2015,06,03,03,47,0.00
2015,06,03,03,48,0.00
2015,06,03,03,49,0.00
2015,06,03,03,50,0.00
2015,06,03,03,51,0.00
2015,06,03,03,52,0.00
2015,06,03,03,53,0.00
2015,06,03,03,54,0.00
2015,06,03,03,55,0.00
2015,06,03,03,56,0.00
2015,06,03,03,57,0.00
2015,06,03,03,58,0.00
2015,06,03,03,59,0.00
2015,06,03,04,00,0.00
2015,06,03,04,01,0.00
2015,06,03,04,02,0.00
2015,06,03,04,03,0.00
2015,06,03,04,04,0.00
2015,06,03,04,05,0.00
2015,06,03,04,06,0.00
2015,06,03,04,07,0.00
2015,06,03,04,08,0.00
2015,06,03,04,09,0.00
2015,06,03,04,10,0.00
2015,06,03,04,11,0.00
2015,06,03,04,12,0.00
2015,06,03,04,13,0.00
2015,06,03,04,14,0.00
2015,06,03,04,15,0.00
2015,06,03,04,16,0.00
2015,06,03,04,17,0.00
2015,06,03,04,18,0.00
2015,06,03,04,19,0.00
2015,06,03,04,20,0.00
2015,06,03,04,21,0.00
2015,06,03,04,22,0.00
2015,06,03,04,23,0.00
2015,06,03,04,24,0.00
2015,06,03,04,25,0.00
2015,06,03,04,26,0.00
2015,06,03,04,27,0.00
2015,06,03,04,28,0.00
2015,06,03,04,29,0.00
2015,06,03,04,30,0.00
2015,06,03,04,31,0.00
2015,06,03,04,32,0.00
2015,06,03,04,33,0.00
2015,06,03,04,34,0.00
2015,06,03,04,35,0.00
2015,06,03,04,36,0.00
2015,06,03,04,37,0.00
2015,06,03,04,38,0.00
2015,06,03,04,39,0.00
2015,06,03,04,40,0.00
2015,06,03,04,41,0.00
2015,06,03,04,42,0.00
2015,06,03,04,43,0.00
2015,06,03,04,44,0.00
2015,06,03,04,45,0.00
2015,06,03,04,46,0.00
2015,06,03,04,47,0.00
2015,06,03,04,48,0.00
2015,06,03,04,49,0.00
2015,06,03,04,50,0.00
2015,06,03,04,51,0.00
2015,06,03,04,52,0.00
2015,06,03,04,53,0.00
2015,06,03,04,54,0.00
2015,06,03,04,55,0.00
2015,06,03,04,56,0.00
2015,06,03,04,57,0.00
2015,06,03,04,58,0.00
2015,06,03,04,59,0.00
2015,06,03,05,00,0.00
2015,06,03,05,01,0.00
2015,06,03,05,02,0.00
2015,06,03,05,03,0.00
2015,06,03,05,04,0.00
2015,06,03,05,05,0.00
2015,06,03,05,06,0.00
2015,06,03,05,07,0.00
2015,06,03,05,08,0.00
2015,06,03,05,09,0.00
2015,06,03,05,10,0.00
2015,06,03,05,11,0.00
2015,06,03,05,12,0.00
2015,06,03,05,13,0.00
2015,06,03,05,14,0.00
2015,06,03,05,15,0.00
2015,06,03,05,16,0.00
2015,06,03,05,17,0.00
2015,06,03,05,18,0.00
2015,06,03,05,19,0.00
2015,06,03,05,20,0.00
2015,06,03,05,21,0.00
2015,06,03,05,22,0.00
2015,06,03,05,23,0.00
2015,06,03,05,24,0.00
2015,06,03,05,25,0.00
2015,06,03,05,26,0.00
2015,06,03,05,27,0.00
2015,06,03,05,28,0.00
2015,06,03,05,29,0.00
2015,06,03,05,30,0.00
2015,06,03,05,31,0.00
2015,06,03,05,32,0.00
2015,06,03,05,33,0.00
2015,06,03,05,34,0.00
2015,06,03,05,35,3.70
2015,06,03,05,36,5.00
2015,06,03,05,37,5.00
2015,06,03,05,38,5.00
2015,06,03,05,39,6.90
2015,06,03,05,40,7.00
2015,06,03,05,41,7.00
2015,06,03,05,42,7.00
2015,06,03,05,43,7.50
2015,06,03,05,44,9.00
2015,06,03,05,45,9.00
2015,06,03,05,46,9.80
2015,06,03,05,47,11.00
2015,06,03,05,48,11.00
2015,06,03,05,49,11.60
2015,06,03,05,50,12.00
2015,06,03,05,51,12.00
2015,06,03,05,52,12.00
2015,06,03,05,53,13.80
2015,06,03,05,54,14.00
2015,06,03,05,55,16.00
2015,06,03,05,56,16.20
2015,06,03,05,57,18.00
2015,06,03,05,58,18.30
2015,06,03,05,59,19.00
2015,06,03,06,00,19.80
2015,06,03,06,01,21.00
2015,06,03,06,02,22.00
2015,06,03,06,03,23.00
2015,06,03,06,04,24.30
2015,06,03,06,05,25.00
2015,06,03,06,06,25.80
2015,06,03,06,07,26.00
2015,06,03,06,08,27.80
2015,06,03,06,09,28.00
2015,06,03,06,10,28.10
2015,06,03,06,11,30.00
2015,06,03,06,12,30.00
2015,06,03,06,13,30.60
2015,06,03,06,14,32.00
2015,06,03,06,15,32.00
2015,06,03,06,16,32.00
2015,06,03,06,17,32.00
2015,06,03,06,18,32.00
2015,06,03,06,19,32.60
2015,06,03,06,20,33.00
2015,06,03,06,21,33.00
2015,06,03,06,22,33.00
2015,06,03,06,23,34.80
2015,06,03,06,24,35.00
2015,06,03,06,25,37.20
2015,06,03,06,26,39.00
2015,06,03,06,27,39.20
2015,06,03,06,28,40.50
2015,06,03,06,29,42.00
2015,06,03,06,30,42.80
2015,06,03,06,31,44.80
2015,06,03,06,32,46.50
2015,06,03,06,33,48.10
2015,06,03,06,34,50.30
2015,06,03,06,35,52.40
2015,06,03,06,36,53.80
2015,06,03,06,37,55.60
2015,06,03,06,38,57.80
2015,06,03,06,39,59.90
2015,06,03,06,40,62.00
2015,06,03,06,41,62.10
2015,06,03,06,42,63.40
2015,06,03,06,43,65.00
2015,06,03,06,44,65.70
2015,06,03,06,45,67.00
2015,06,03,06,46,67.00
2015,06,03,06,47,67.00
2015,06,03,06,48,65.80
2015,06,03,06,49,65.00
2015,06,03,06,50,65.00
2015,06,03,06,51,66.50
2015,06,03,06,52,68.70
2015,06,03,06,53,69.90
2015,06,03,06,54,71.90
2015,06,03,06,55,74.20
2015,06,03,06,56,76.10
2015,06,03,06,57,77.40
2015,06,03,06,58,79.00
2015,06,03,06,59,79.70
2015,06,03,07,00,81.70
2015,06,03,07,01,83.40
2015,06,03,07,02,84.00
2015,06,03,07,03,85.20
2015,06,03,07,04,87.30
2015,06,03,07,05,89.40
2015,06,03,07,06,90.80
2015,06,03,07,07,91.00
2015,06,03,07,08,92.80
2015,06,03,07,09,94.90
2015,06,03,07,10,97.10
2015,06,03,07,11,98.20
2015,06,03,07,12,100.00
2015,06,03,07,13,100.00
2015,06,03,07,14,99.40
2015,06,03,07,15,97.70
2015,06,03,07,16,96.10
2015,06,03,07,17,94.00
2015,06,03,07,18,91.90
2015,06,03,07,19,91.00
2015,06,03,07,20,91.00
2015,06,03,07,21,91.00
2015,06,03,07,22,91.00
2015,06,03,07,23,92.80
2015,06,03,07,24,94.90
2015,06,03,07,25,97.00
2015,06,03,07,26,97.00
2015,06,03,07,27,97.20
2015,06,03,07,28,98.60
2015,06,03,07,29,100.70
2015,06,03,07,30,102.80
2015,06,03,07,31,104.50
2015,06,03,07,32,106.00
2015,06,03,07,33,108.20
2015,06,03,07,34,110.30
2015,06,03,07,35,111.00
2015,06,03,07,36,112.50
2015,06,03,07,37,113.00
2015,06,03,07,38,113.00
2015,06,03,07,39,111.10
2015,06,03,07,40,111.00
2015,06,03,07,41,110.70
2015,06,03,07,42,109.00
2015,06,03,07,43,109.60
2015,06,03,07,44,111.00
2015,06,03,07,45,111.80
2015,06,03,07,46,114.30
2015,06,03,07,47,117.00
2015,06,03,07,48,121.00
2015,06,03,07,49,126.20
2015,06,03,07,50,132.20
2015,06,03,07,51,137.80
2015,06,03,07,52,143.20
2015,06,03,07,53,147.60
2015,06,03,07,54,150.90
2015,06,03,07,55,155.10
2015,06,03,07,56,156.00
2015,06,03,07,57,156.40
2015,06,03,07,58,159.00
2015,06,03,07,59,162.40
2015,06,03,08,00,163.70
2015,06,03,08,01,165.90
2015,06,03,08,02,167.00
2015,06,03,08,03,165.80
2015,06,03,08,04,163.10
2015,06,03,08,05,159.20
2015,06,03,08,06,155.80
2015,06,03,08,07,153.30
2015,06,03,08,08,153.00
2015,06,03,08,09,153.00
2015,06,03,08,10,155.10
2015,06,03,08,11,156.90
2015,06,03,08,12,162.80
2015,06,03,08,13,167.10
2015,06,03,08,14,174.40
2015,06,03,08,15,180.60
2015,06,03,08,16,184.40
2015,06,03,08,17,189.20
2015,06,03,08,18,193.60
2015,06,03,08,19,197.60
2015,06,03,08,20,201.20
2015,06,03,08,21,205.00
2015,06,03,08,22,208.60
2015,06,03,08,23,212.60
2015,06,03,08,24,219.60
2015,06,03,08,25,225.40
2015,06,03,08,26,233.10
2015,06,03,08,27,240.40
2015,06,03,08,28,247.80
2015,06,03,08,29,256.10
2015,06,03,08,30,265.60
2015,06,03,08,31,274.50
2015,06,03,08,32,279.60
2015,06,03,08,33,283.20
2015,06,03,08,34,287.00
2015,06,03,08,35,285.90
2015,06,03,08,36,280.50
2015,06,03,08,37,276.50
2015,06,03,08,38,270.00
2015,06,03,08,39,267.10
2015,06,03,08,40,264.00
2015,06,03,08,41,264.00
2015,06,03,08,42,264.00
2015,06,03,08,43,264.90
2015,06,03,08,44,268.30
2015,06,03,08,45,273.00
2015,06,03,08,46,277.40
2015,06,03,08,47,280.10
2015,06,03,08,48,281.00
2015,06,03,08,49,279.70
2015,06,03,08,50,276.90
2015,06,03,08,51,270.80
2015,06,03,08,52,265.00
2015,06,03,08,53,258.60
2015,06,03,08,54,255.10
2015,06,03,08,55,253.00
2015,06,03,08,56,253.00
2015,06,03,08,57,253.00
2015,06,03,08,58,252.50
2015,06,03,08,59,249.90
2015,06,03,09,00,246.50
2015,06,03,09,01,242.60
2015,06,03,09,02,239.90
2015,06,03,09,03,239.00
2015,06,03,09,04,239.00
2015,06,03,09,05,239.00
2015,06,03,09,06,242.20
2015,06,03,09,07,243.80
2015,06,03,09,08,244.00
2015,06,03,09,09,244.00
2015,06,03,09,10,242.90
2015,06,03,09,11,240.70
2015,06,03,09,12,238.60
2015,06,03,09,13,236.20
2015,06,03,09,14,233.30
2015,06,03,09,15,231.20
2015,06,03,09,16,229.50
2015,06,03,09,17,228.00
2015,06,03,09,18,227.00
2015,06,03,09,19,225.70
2015,06,03,09,20,225.00
2015,06,03,09,21,225.00
2015,06,03,09,22,225.00
2015,06,03,09,23,226.80
2015,06,03,09,24,227.00
2015,06,03,09,25,229.10
2015,06,03,09,26,230.00
2015,06,03,09,27,230.40
2015,06,03,09,28,232.60
2015,06,03,09,29,234.00
2015,06,03,09,30,234.80
2015,06,03,09,31,236.40
2015,06,03,09,32,237.00
2015,06,03,09,33,237.00
2015,06,03,09,34,237.00
2015,06,03,09,35,237.00
2015,06,03,09,36,237.00
2015,06,03,09,37,236.20
2015,06,03,09,38,236.00
2015,06,03,09,39,236.00
2015,06,03,09,40,236.10
2015,06,03,09,41,237.30
2015,06,03,09,42,239.40
2015,06,03,09,43,241.80
2015,06,03,09,44,245.30
2015,06,03,09,45,248.70
2015,06,03,09,46,251.40
2015,06,03,09,47,253.00
2015,06,03,09,48,253.00
2015,06,03,09,49,253.00
2015,06,03,09,50,251.60
2015,06,03,09,51,251.00
2015,06,03,09,52,251.00
2015,06,03,09,53,251.00
2015,06,03,09,54,252.80
2015,06,03,09,55,253.00
2015,06,03,09,56,253.20
2015,06,03,09,57,255.00
2015,06,03,09,58,255.00
2015,06,03,09,59,255.60
2015,06,03,10,00,257.40
2015,06,03,10,01,260.40
2015,06,03,10,02,265.50
2015,06,03,10,03,269.20
2015,06,03,10,04,271.60
2015,06,03,10,05,273.40
2015,06,03,10,06,277.00
2015,06,03,10,07,282.20
2015,06,03,10,08,289.00
2015,06,03,10,09,296.30
2015,06,03,10,10,302.40
2015,06,03,10,11,309.60
2015,06,03,10,12,316.30
2015,06,03,10,13,323.30
2015,06,03,10,14,328.70
2015,06,03,10,15,334.60
2015,06,03,10,16,343.70
2015,06,03,10,17,354.50
2015,06,03,10,18,364.80
2015,06,03,10,19,375.80
2015,06,03,10,20,386.80
2015,06,03,10,21,396.80
2015,06,03,10,22,406.20
2015,06,03,10,23,417.00
2015,06,03,10,24,430.30
2015,06,03,10,25,446.80
2015,06,03,10,26,466.20
2015,06,03,10,27,487.80
2015,06,03,10,28,500.80
2015,06,03,10,29,508.10
2015,06,03,10,30,521.40
2015,06,03,10,31,539.00
2015,06,03,10,32,550.30
2015,06,03,10,33,562.20
2015,06,03,10,34,595.80
2015,06,03,10,35,610.70
2015,06,03,10,36,594.20
2015,06,03,10,37,568.20
2015,06,03,10,38,540.30
2015,06,03,10,39,533.30
2015,06,03,10,40,541.70
2015,06,03,10,41,556.30
2015,06,03,10,42,578.00
2015,06,03,10,43,580.90
2015,06,03,10,44,573.10
2015,06,03,10,45,559.20
2015,06,03,10,46,547.40
2015,06,03,10,47,538.80
2015,06,03,10,48,534.90
2015,06,03,10,49,534.00
2015,06,03,10,50,536.70
2015,06,03,10,51,542.00
2015,06,03,10,52,544.70
2015,06,03,10,53,534.80
2015,06,03,10,54,510.40
2015,06,03,10,55,468.50
2015,06,03,10,56,420.80
2015,06,03,10,57,388.40
2015,06,03,10,58,369.60
2015,06,03,10,59,357.60
2015,06,03,11,00,349.90
2015,06,03,11,01,346.00
2015,06,03,11,02,347.00
2015,06,03,11,03,350.90
2015,06,03,11,04,358.60
2015,06,03,11,05,366.80
2015,06,03,11,06,372.00
2015,06,03,11,07,371.30
2015,06,03,11,08,366.80
2015,06,03,11,09,366.00
2015,06,03,11,10,362.90
2015,06,03,11,11,337.70
2015,06,03,11,12,302.20
2015,06,03,11,13,285.80
2015,06,03,11,14,276.90
2015,06,03,11,15,269.20
2015,06,03,11,16,262.80
2015,06,03,11,17,260.00
2015,06,03,11,18,253.10
2015,06,03,11,19,245.00
2015,06,03,11,20,239.10
2015,06,03,11,21,233.50
2015,06,03,11,22,229.60
2015,06,03,11,23,225.60
2015,06,03,11,24,226.90
2015,06,03,11,25,227.10
2015,06,03,11,26,230.60
2015,06,03,11,27,235.10
2015,06,03,11,28,242.80
2015,06,03,11,29,250.70
2015,06,03,11,30,259.90
2015,06,03,11,31,269.40
2015,06,03,11,32,281.50
2015,06,03,11,33,293.60
2015,06,03,11,34,306.60
2015,06,03,11,35,320.10
2015,06,03,11,36,335.50
2015,06,03,11,37,350.20
2015,06,03,11,38,364.60
2015,06,03,11,39,375.00
2015,06,03,11,40,387.50
2015,06,03,11,41,396.80
2015,06,03,11,42,405.00
2015,06,03,11,43,412.80
2015,06,03,11,44,421.30
2015,06,03,11,45,432.50
2015,06,03,11,46,445.30
2015,06,03,11,47,463.50
2015,06,03,11,48,487.30
2015,06,03,11,49,523.60
2015,06,03,11,50,575.70
2015,06,03,11,51,656.60
2015,06,03,11,52,680.00
2015,06,03,11,53,680.00
2015,06,03,11,54,680.00
2015,06,03,11,55,683.20
2015,06,03,11,56,740.20
2015,06,03,11,57,713.20
2015,06,03,11,58,702.20
2015,06,03,11,59,772.90
2015,06,03,12,00,796.00
2015,06,03,12,01,805.00
2015,06,03,12,02,799.20
2015,06,03,12,03,781.10
2015,06,03,12,04,779.00
2015,06,03,12,05,779.00
2015,06,03,12,06,779.00
2015,06,03,12,07,1239.80
2015,06,03,12,08,1303.20
2015,06,03,12,09,1294.00
2015,06,03,12,10,1294.00
2015,06,03,12,11,1307.20
2015,06,03,12,12,1422.80
2015,06,03,12,13,1438.00
2015,06,03,12,14,1438.00
2015,06,03,12,15,1438.00
2015,06,03,12,16,1438.00
2015,06,03,12,17,1438.00
2015,06,03,12,18,1438.00
2015,06,03,12,19,920.70
2015,06,03,12,20,633.70
2015,06,03,12,21,640.00
2015,06,03,12,22,640.00
2015,06,03,12,23,640.00
2015,06,03,12,24,640.00
2015,06,03,12,25,630.00
2015,06,03,12,26,536.40
2015,06,03,12,27,501.20
2015,06,03,12,28,474.00
2015,06,03,12,29,445.20
2015,06,03,12,30,429.60
2015,06,03,12,31,402.20
2015,06,03,12,32,371.00
2015,06,03,12,33,356.30
2015,06,03,12,34,337.40
2015,06,03,12,35,323.50
2015,06,03,12,36,301.20
2015,06,03,12,37,276.80
2015,06,03,12,38,254.10
2015,06,03,12,39,236.80
2015,06,03,12,40,220.60
2015,06,03,12,41,212.10
2015,06,03,12,42,202.60
2015,06,03,12,43,195.90
2015,06,03,12,44,190.20
2015,06,03,12,45,184.20
2015,06,03,12,46,179.60
2015,06,03,12,47,176.00
2015,06,03,12,48,172.90
2015,06,03,12,49,171.40
2015,06,03,12,50,171.00
2015,06,03,12,51,171.80
2015,06,03,12,52,172.00
2015,06,03,12,53,172.00
2015,06,03,12,54,171.10
2015,06,03,12,55,169.00
2015,06,03,12,56,169.00
2015,06,03,12,57,169.00
2015,06,03,12,58,169.50
2015,06,03,12,59,171.90
2015,06,03,13,00,174.70
2015,06,03,13,01,177.40
2015,06,03,13,02,179.90
2015,06,03,13,03,182.10
2015,06,03,13,04,183.00
2015,06,03,13,05,181.60
2015,06,03,13,06,181.00
2015,06,03,13,07,181.00
2015,06,03,13,08,182.70
2015,06,03,13,09,184.80
2015,06,03,13,10,188.00
2015,06,03,13,11,188.30
2015,06,03,13,12,190.00
2015,06,03,13,13,190.00
2015,06,03,13,14,188.80
2015,06,03,13,15,184.80
2015,06,03,13,16,180.80
2015,06,03,13,17,176.00
2015,06,03,13,18,172.80
2015,06,03,13,19,171.40
2015,06,03,13,20,171.00
2015,06,03,13,21,173.20
2015,06,03,13,22,175.60
2015,06,03,13,23,178.60
2015,06,03,13,24,182.60
2015,06,03,13,25,186.30
2015,06,03,13,26,192.40
2015,06,03,13,27,195.80
2015,06,03,13,28,201.80
2015,06,03,13,29,209.70
2015,06,03,13,30,219.30
2015,06,03,13,31,229.40
2015,06,03,13,32,241.00
2015,06,03,13,33,252.30
2015,06,03,13,34,266.40
2015,06,03,13,35,281.80
2015,06,03,13,36,299.80
2015,06,03,13,37,318.40
2015,06,03,13,38,339.90
2015,06,03,13,39,361.90
2015,06,03,13,40,383.70
2015,06,03,13,41,398.20
2015,06,03,13,42,410.00
2015,06,03,13,43,421.20
2015,06,03,13,44,434.00
2015,06,03,13,45,447.60
2015,06,03,13,46,471.00
2015,06,03,13,47,501.00
2015,06,03,13,48,564.50
2015,06,03,13,49,605.00
2015,06,03,13,50,846.20
2015,06,03,13,51,1015.80
2015,06,03,13,52,1030.00
2015,06,03,13,53,1002.00
2015,06,03,13,54,1010.30
2015,06,03,13,55,971.20
2015,06,03,13,56,879.10
2015,06,03,13,57,868.20
2015,06,03,13,58,957.20
2015,06,03,13,59,990.00
2015,06,03,14,00,990.00
2015,06,03,14,01,990.00
2015,06,03,14,02,1027.50
2015,06,03,14,03,1087.60
2015,06,03,14,04,1106.00
2015,06,03,14,05,1166.90
2015,06,03,14,06,1195.00
2015,06,03,14,07,1195.00
2015,06,03,14,08,725.90
2015,06,03,14,09,633.50
2015,06,03,14,10,644.60
2015,06,03,14,11,877.00
2015,06,03,14,12,877.00
2015,06,03,14,13,877.00
2015,06,03,14,14,877.00
2015,06,03,14,15,877.00
2015,06,03,14,16,877.00
2015,06,03,14,17,877.00
2015,06,03,14,18,877.00
2015,06,03,14,19,585.80
2015,06,03,14,20,429.00
2015,06,03,14,21,429.00
2015,06,03,14,22,429.00
2015,06,03,14,23,429.00
2015,06,03,14,24,424.50
2015,06,03,14,25,338.20
2015,06,03,14,26,322.30
2015,06,03,14,27,316.30
2015,06,03,14,28,321.00
2015,06,03,14,29,335.10
2015,06,03,14,30,346.00
2015,06,03,14,31,433.20
2015,06,03,14,32,564.00
2015,06,03,14,33,436.40
2015,06,03,14,34,314.30
2015,06,03,14,35,300.80
2015,06,03,14,36,297.50
2015,06,03,14,37,300.20
2015,06,03,14,38,386.00
2015,06,03,14,39,401.00
2015,06,03,14,40,294.10
2015,06,03,14,41,297.20
2015,06,03,14,42,297.60
2015,06,03,14,43,289.30
2015,06,03,14,44,275.40
2015,06,03,14,45,264.00
2015,06,03,14,46,255.90
2015,06,03,14,47,251.60
2015,06,03,14,48,247.80
2015,06,03,14,49,244.30
2015,06,03,14,50,241.70
2015,06,03,14,51,242.50
2015,06,03,14,52,248.60
2015,06,03,14,53,254.20
2015,06,03,14,54,259.50
2015,06,03,14,55,267.50
2015,06,03,14,56,276.70
2015,06,03,14,57,285.70
2015,06,03,14,58,301.00
2015,06,03,14,59,318.00
2015,06,03,15,00,337.30
2015,06,03,15,01,351.00
2015,06,03,15,02,360.50
2015,06,03,15,03,369.00
2015,06,03,15,04,380.20
2015,06,03,15,05,394.60
2015,06,03,15,06,406.90
2015,06,03,15,07,422.00
2015,06,03,15,08,446.20
2015,06,03,15,09,476.50
2015,06,03,15,10,544.50
2015,06,03,15,11,548.00
2015,06,03,15,12,548.00
2015,06,03,15,13,548.00
2015,06,03,15,14,563.90
2015,06,03,15,15,618.80
2015,06,03,15,16,652.00
2015,06,03,15,17,578.70
2015,06,03,15,18,513.20
2015,06,03,15,19,541.70
2015,06,03,15,20,494.70
2015,06,03,15,21,437.30
2015,06,03,15,22,409.80
2015,06,03,15,23,401.80
2015,06,03,15,24,401.00
2015,06,03,15,25,393.70
2015,06,03,15,26,387.30
2015,06,03,15,27,379.50
2015,06,03,15,28,371.00
2015,06,03,15,29,366.80
2015,06,03,15,30,353.20
2015,06,03,15,31,349.20
2015,06,03,15,32,347.10
2015,06,03,15,33,344.40
2015,06,03,15,34,343.00
2015,06,03,15,35,340.40
2015,06,03,15,36,336.80
2015,06,03,15,37,331.20
2015,06,03,15,38,323.70
2015,06,03,15,39,318.20
2015,06,03,15,40,310.90
2015,06,03,15,41,307.40
2015,06,03,15,42,301.40
2015,06,03,15,43,297.20
2015,06,03,15,44,289.30
2015,06,03,15,45,279.90
2015,06,03,15,46,271.90
2015,06,03,15,47,269.00
2015,06,03,15,48,264.00
2015,06,03,15,49,260.00
2015,06,03,15,50,261.30
2015,06,03,15,51,265.80
2015,06,03,15,52,272.60
2015,06,03,15,53,280.00
2015,06,03,15,54,291.40
2015,06,03,15,55,303.90
2015,06,03,15,56,313.50
2015,06,03,15,57,318.30
2015,06,03,15,58,320.60
2015,06,03,15,59,324.20
2015,06,03,16,00,327.70
2015,06,03,16,01,334.60
2015,06,03,16,02,347.50
2015,06,03,16,03,358.60
2015,06,03,16,04,385.40
2015,06,03,16,05,391.90
2015,06,03,16,06,406.60
2015,06,03,16,07,416.60
2015,06,03,16,08,417.00
2015,06,03,16,09,568.20
2015,06,03,16,10,507.20
2015,06,03,16,11,450.50
2015,06,03,16,12,438.00
2015,06,03,16,13,438.00
2015,06,03,16,14,420.90
2015,06,03,16,15,371.90
2015,06,03,16,16,341.80
2015,06,03,16,17,313.00
2015,06,03,16,18,298.70
2015,06,03,16,19,290.70
2015,06,03,16,20,260.00
2015,06,03,16,21,220.20
2015,06,03,16,22,196.50
2015,06,03,16,23,180.90
2015,06,03,16,24,178.10
2015,06,03,16,25,198.90
2015,06,03,16,26,200.00
2015,06,03,16,27,200.00
2015,06,03,16,28,198.50
2015,06,03,16,29,213.10
2015,06,03,16,30,248.30
2015,06,03,16,31,229.60
2015,06,03,16,32,228.80
2015,06,03,16,33,223.50
2015,06,03,16,34,220.40
2015,06,03,16,35,217.40
2015,06,03,16,36,226.80
2015,06,03,16,37,243.70
2015,06,03,16,38,269.50
2015,06,03,16,39,298.10
2015,06,03,16,40,338.00
2015,06,03,16,41,338.00
2015,06,03,16,42,338.10
2015,06,03,16,43,339.00
2015,06,03,16,44,336.30
2015,06,03,16,45,327.50
2015,06,03,16,46,321.60
2015,06,03,16,47,318.00
2015,06,03,16,48,316.00
2015,06,03,16,49,318.40
2015,06,03,16,50,322.10
2015,06,03,16,51,324.40
2015,06,03,16,52,326.60
2015,06,03,16,53,325.40
2015,06,03,16,54,323.10
2015,06,03,16,55,322.00
2015,06,03,16,56,358.30
2015,06,03,16,57,408.10
2015,06,03,16,58,419.20
2015,06,03,16,59,408.50
2015,06,03,17,00,376.70
2015,06,03,17,01,347.60
2015,06,03,17,02,333.40
2015,06,03,17,03,327.10
2015,06,03,17,04,329.00
2015,06,03,17,05,324.10
2015,06,03,17,06,325.80
2015,06,03,17,07,329.40
2015,06,03,17,08,319.80
2015,06,03,17,09,309.90
2015,06,03,17,10,303.60